When you browse on this site, cookies collect data to enhance your experience and personalize the content and advertising you see.
Visit our Privacy Policy to learn more. By continuing to use the site, you agree to this use of cookies and data.
  • In Deutschland
  • Länderverzeichnis
  • Für 7 Tage
  • Wassertemperatur
  • Wetterkarte
  • Widgets
  • user-avatar
    Anmelden

    Stündliche Wetter Mokre

    Heute, 25 Mai, Montag

    Zeit Temperatur Niederschläge Wind Luftdruck Luftfeuchtigkeit
    00:00 +10°C° 0 mm 2 m/S 758 mmHg 88%
    01:00 +10°C° 0 mm 2 m/S 757 mmHg 88%
    02:00 +9°C° 0.1 mm 2 m/S 757 mmHg 89%
    03:00 +9°C° 0.1 mm 2 m/S 757 mmHg 91%
    04:00 +9°C° 0.1 mm 2 m/S 758 mmHg 92%
    05:00 +9°C° 0.1 mm 2 m/S 758 mmHg 91%
    06:00 +10°C° 0.1 mm 2 m/S 758 mmHg 89%
    07:00 +10°C° 0 mm 2 m/S 758 mmHg 88%
    08:00 +12°C° 0.2 mm 2 m/S 758 mmHg 84%
    09:00 +13°C° 0.2 mm 2 m/S 758 mmHg 80%
    10:00 +13°C° 0.2 mm 2 m/S 758 mmHg 76%
    11:00 +15°C° 0.4 mm 2 m/S 758 mmHg 71%
    12:00 +16°C° 0.4 mm 2 m/S 758 mmHg 65%
    13:00 +16°C° 0 mm 3 m/S 759 mmHg 61%
    14:00 +16°C° 0.3 mm 3 m/S 759 mmHg 62%
    15:00 +16°C° 0.3 mm 3 m/S 758 mmHg 63%
    16:00 +17°C° 0.3 mm 3 m/S 758 mmHg 64%
    17:00 +14°C° 0.4 mm 3 m/S 759 mmHg 70%
    18:00 +13°C° 0.4 mm 3 m/S 759 mmHg 76%
    19:00 +13°C° 0.4 mm 2 m/S 759 mmHg 82%
    20:00 +12°C° 0 mm 3 m/S 760 mmHg 85%
    21:00 +11°C° 0 mm 3 m/S 760 mmHg 88%
    22:00 +10°C° 0 mm 3 m/S 761 mmHg 91%
    23:00 +9°C° 0 mm 3 m/S 761 mmHg 92%

    Morgen, 26 Mai, Dienstag

    Zeit Temperatur Niederschläge Wind Luftdruck Luftfeuchtigkeit
    00:00 +9°C° 0 mm 3 m/S 761 mmHg 93%
    01:00 +9°C° 0 mm 3 m/S 761 mmHg 95%
    02:00 +8°C° 0.1 mm 3 m/S 761 mmHg 95%
    03:00 +8°C° 0.1 mm 3 m/S 761 mmHg 96%
    04:00 +8°C° 0.1 mm 3 m/S 762 mmHg 96%
    05:00 +9°C° 0 mm 3 m/S 762 mmHg 93%
    06:00 +11°C° 0 mm 3 m/S 762 mmHg 89%
    07:00 +12°C° 0 mm 3 m/S 762 mmHg 86%
    08:00 +13°C° 0.2 mm 3 m/S 762 mmHg 79%
    09:00 +15°C° 0.2 mm 4 m/S 763 mmHg 73%
    10:00 +17°C° 0.2 mm 4 m/S 763 mmHg 66%
    11:00 +17°C° 0.2 mm 5 m/S 763 mmHg 63%
    12:00 +19°C° 0.2 mm 5 m/S 762 mmHg 59%
    13:00 +19°C° 0.2 mm 5 m/S 762 mmHg 56%
    14:00 +19°C° 0.2 mm 5 m/S 762 mmHg 57%
    15:00 +19°C° 0.2 mm 5 m/S 762 mmHg 59%
    16:00 +19°C° 0.2 mm 5 m/S 762 mmHg 60%
    17:00 +17°C° 0.2 mm 5 m/S 762 mmHg 67%
    18:00 +17°C° 0.2 mm 4 m/S 762 mmHg 74%
    19:00 +14°C° 0.2 mm 3 m/S 762 mmHg 80%
    20:00 +13°C° 0 mm 3 m/S 763 mmHg 84%
    21:00 +12°C° 0 mm 3 m/S 763 mmHg 88%
    22:00 +11°C° 0 mm 3 m/S 763 mmHg 91%
    23:00 +11°C° 0 mm 3 m/S 763 mmHg 92%

    übermorgen, 27 Mai, Mittwoch

    Zeit Temperatur Niederschläge Wind Luftdruck Luftfeuchtigkeit
    00:00 +10°C° 0 mm 3 m/S 763 mmHg 93%
    01:00 +10°C° 0 mm 3 m/S 763 mmHg 95%
    02:00 +10°C° 0 mm 3 m/S 763 mmHg 95%
    03:00 +9°C° 0 mm 3 m/S 763 mmHg 95%
    04:00 +9°C° 0 mm 2 m/S 763 mmHg 95%
    05:00 +10°C° 0 mm 3 m/S 763 mmHg 91%
    06:00 +12°C° 0 mm 3 m/S 763 mmHg 87%
    07:00 +14°C° 0 mm 3 m/S 763 mmHg 82%
    08:00 +16°C° 0.1 mm 3 m/S 763 mmHg 76%
    09:00 +18°C° 0.1 mm 4 m/S 762 mmHg 69%
    10:00 +19°C° 0.1 mm 4 m/S 762 mmHg 62%
    11:00 +19°C° 0.2 mm 4 m/S 762 mmHg 60%
    12:00 +20°C° 0.2 mm 4 m/S 762 mmHg 57%
    13:00 +20°C° 0.2 mm 4 m/S 761 mmHg 55%
    14:00 +20°C° 0.2 mm 4 m/S 761 mmHg 56%
    15:00 +20°C° 0.2 mm 4 m/S 761 mmHg 56%
    16:00 +20°C° 0.2 mm 4 m/S 761 mmHg 57%
    17:00 +18°C° 0.1 mm 4 m/S 760 mmHg 64%
    18:00 +17°C° 0.1 mm 3 m/S 760 mmHg 70%
    19:00 +16°C° 0.1 mm 3 m/S 760 mmHg 76%
    20:00 +14°C° 0 mm 2 m/S 760 mmHg 79%
    21:00 +13°C° 0 mm 2 m/S 760 mmHg 81%
    22:00 +12°C° 0 mm 2 m/S 760 mmHg 84%
    23:00 +12°C° 0 mm 1 m/S 760 mmHg 84%

    28 Mai, Donnerstag

    Zeit Temperatur Niederschläge Wind Luftdruck Luftfeuchtigkeit
    00:00 +11°C° 0 mm 1 m/S 760 mmHg 85%
    01:00 +11°C° 0 mm 1 m/S 760 mmHg 85%
    02:00 +11°C° 0 mm 1 m/S 760 mmHg 85%
    03:00 +11°C° 0 mm 1 m/S 759 mmHg 85%
    04:00 +11°C° 0 mm 1 m/S 759 mmHg 85%
    05:00 +12°C° 0.1 mm 2 m/S 759 mmHg 84%
    06:00 +13°C° 0.1 mm 2 m/S 759 mmHg 82%
    07:00 +12°C° 0.1 mm 3 m/S 759 mmHg 81%
    08:00 +14°C° 0 mm 3 m/S 759 mmHg 74%
    09:00 +15°C° 0 mm 4 m/S 758 mmHg 67%
    10:00 +16°C° 0 mm 5 m/S 758 mmHg 59%
    11:00 +17°C° 0 mm 5 m/S 758 mmHg 57%
    12:00 +19°C° 0 mm 5 m/S 757 mmHg 55%
    13:00 +19°C° 0 mm 5 m/S 757 mmHg 53%
    14:00 +19°C° 0.3 mm 5 m/S 757 mmHg 57%
    15:00 +17°C° 0.3 mm 6 m/S 757 mmHg 61%
    16:00 +16°C° 0.3 mm 7 m/S 757 mmHg 65%
    17:00 +15°C° 0.1 mm 6 m/S 757 mmHg 68%
    18:00 +14°C° 0.1 mm 6 m/S 757 mmHg 72%
    19:00 +13°C° 0.1 mm 5 m/S 757 mmHg 76%
    20:00 +10°C° 0 mm 5 m/S 758 mmHg 75%
    21:00 +9°C° 0 mm 5 m/S 758 mmHg 74%
    22:00 +8°C° 0 mm 5 m/S 758 mmHg 73%
    23:00 +7°C° 0 mm 5 m/S 758 mmHg 73%

    29 Mai, Freitag

    Zeit Temperatur Niederschläge Wind Luftdruck Luftfeuchtigkeit
    00:00 +6°C° 0 mm 5 m/S 758 mmHg 74%
    01:00 +5°C° 0 mm 4 m/S 758 mmHg 74%
    02:00 +5°C° 0 mm 4 m/S 758 mmHg 75%
    03:00 +5°C° 0 mm 4 m/S 758 mmHg 76%
    04:00 +4°C° 0 mm 4 m/S 759 mmHg 77%
    05:00 +6°C° 0 mm 5 m/S 758 mmHg 73%
    06:00 +7°C° 0 mm 5 m/S 758 mmHg 69%
    07:00 +8°C° 0 mm 6 m/S 758 mmHg 64%
    08:00 +10°C° 0 mm 6 m/S 758 mmHg 61%
    09:00 +11°C° 0 mm 6 m/S 758 mmHg 58%
    10:00 +14°C° 0 mm 5 m/S 758 mmHg 55%
    11:00 +14°C° 0.5 mm 6 m/S 757 mmHg 58%
    12:00 +14°C° 0.5 mm 7 m/S 757 mmHg 61%
    13:00 +14°C° 0.5 mm 7 m/S 757 mmHg 64%
    14:00 +14°C° 0.3 mm 7 m/S 756 mmHg 65%
    15:00 +14°C° 0.3 mm 6 m/S 756 mmHg 65%
    16:00 +14°C° 0.3 mm 6 m/S 756 mmHg 66%
    17:00 +13°C° 0.5 mm 6 m/S 756 mmHg 72%
    18:00 +10°C° 0.5 mm 6 m/S 756 mmHg 78%
    19:00 +9°C° 0.5 mm 5 m/S 756 mmHg 84%
    20:00 +9°C° 0.1 mm 5 m/S 756 mmHg 86%
    21:00 +8°C° 0.1 mm 4 m/S 756 mmHg 87%
    22:00 +8°C° 0.1 mm 3 m/S 756 mmHg 89%
    23:00 +7°C° 0 mm 3 m/S 756 mmHg 90%

    30 Mai, Samstag

    Zeit Temperatur Niederschläge Wind Luftdruck Luftfeuchtigkeit
    00:00 +7°C° 0 mm 3 m/S 756 mmHg 90%
    01:00 +5°C° 0 mm 3 m/S 756 mmHg 91%
    02:00 +5°C° 0 mm 3 m/S 756 mmHg 92%
    03:00 +5°C° 0 mm 3 m/S 756 mmHg 93%
    04:00 +5°C° 0 mm 3 m/S 755 mmHg 93%
    05:00 +8°C° 0 mm 2 m/S 756 mmHg 91%
    06:00 +9°C° 0 mm 2 m/S 756 mmHg 90%
    07:00 +11°C° 0 mm 1 m/S 756 mmHg 88%
    08:00 +12°C° 0 mm 1 m/S 756 mmHg 85%
    09:00 +13°C° 0 mm 1 m/S 756 mmHg 82%
    10:00 +14°C° 0 mm 2 m/S 756 mmHg 78%
    11:00 +14°C° 0 mm 2 m/S 756 mmHg 77%
    12:00 +15°C° 0 mm 2 m/S 755 mmHg 76%
    13:00 +15°C° 0 mm 2 m/S 755 mmHg 75%
    14:00 +16°C° 0 mm 2 m/S 755 mmHg 75%
    15:00 +16°C° 0 mm 2 m/S 755 mmHg 76%
    16:00 +16°C° 0 mm 2 m/S 755 mmHg 76%
    17:00 +16°C° 0.1 mm 2 m/S 754 mmHg 79%
    18:00 +16°C° 0.1 mm 2 m/S 754 mmHg 83%
    19:00 +15°C° 0.1 mm 2 m/S 754 mmHg 86%
    20:00 +15°C° 1 mm 2 m/S 754 mmHg 89%
    21:00 +14°C° 1 mm 2 m/S 754 mmHg 92%
    22:00 +13°C° 1 mm 3 m/S 754 mmHg 95%
    23:00 +13°C° 0.5 mm 3 m/S 754 mmHg 95%
    Mehr zeigen